Dewpoint
19 18 16 16 14 12 12 10 9 10 22 22 20 21 35 36 49 51 53 57 58 57 60 61 62 64 66 70 69 69 68 64 63 63 63 63 63 66 70 70 70 70 69 69
15 16 15 16 16 12 8 6 7 9 22 20 21 20 21 36 41 52 55 56 58 59 61 62 63 63 65 71 70 69 67 64 63 64 66 64 67 68 69 70 69 70 71 70
12 18 17 15 13 8 6 5 7 9 15 19 21 20 21 25 35 53 56 58 59 60 62 63 64 64 65 67 69 67 65 62 64 65 65 64 65 65 68 68 68 70 68 68
12 13 17 16 15 10 7 11 16 11 11 10 17 15 22 27 32 34 56 58 58 59 63 63 64 64 63 68 71 68 66 65 66 67 65 63 63 65 66 67 67 67 67 68
17 15 15 16 14 10 9 17 22 23 17 17 17 20 23 30 34 39 43 57 57 60 62 63 63 63 64 70 69 71 70 69 67 68 69 67 67 68 67 66 66 65 68 67
19 21 19 17 17 13 14 15 20 20 16 14 26 26 29 27 36 41 38 40 57 62 62 62 64 64 65 67 69 70 70 70 70 70 69 68 68 66 64 66 65 66 67 68
24 21 21 18 16 16 14 14 15 18 19 22 28 23 30 29 31 40 42 52 57 61 62 62 64 64 65 66 68 70 70 70 70 68 69 67 67 67 66 65 66 66 66 66
21 20 19 18 15 18 17 16 17 17 16 24 29 23 27 33 36 37 39 49 57 59 61 61 62 63 63 65 67 69 69 70 69 68 68 68 67 67 67 66 67 65 65 65
21 21 23 17 16 16 16 19 19 18 21 16 25 30 35 37 37 39 39 46 56 57 60 60 61 62 62 64 68 69 70 68 68 68 67 67 68 66 65 67 67 65 65 66
20 22 19 16 18 18 17 19 15 21 14 15 18 28 28 32 34 39 42 46 54 57 59 61 62 62 63 64 67 70 70 68 68 67 67 67 67 67 66 67 65 64 65 66
20 23 22 21 19 18 17 15 17 16 20 18 16 30 39 37 38 43 51 52 53 55 57 60 61 62 62 62 64 68 68 68 67 67 67 67 66 65 66 66 65 64 65 66
21 22 20 22 22 21 20 19 24 18 16 22 21 31 44 44 47 52 56 54 50 54 57 61 61 61 61 61 65 65 66 67 67 67 66 67 66 65 64 64 65 64 65 66
27 21 18 18 21 21 21 18 16 23 32 26 25 32 45 47 51 50 50 50 55 55 59 60 61 60 61 64 56 58 64 65 66 66 66 66 65 65 64 64 64 63 64 65
26 27 26 19 23 24 22 23 23 25 22 19 22 31 44 42 41 47 53 54 52 60 61 61 61 63 64 56 59 59 62 65 65 65 66 67 66 65 64 65 64 63 64 64
28 25 28 27 25 21 21 23 23 21 24 22 21 39 41 45 44 46 43 39 44 54 62 62 64 65 60 56 58 61 61 64 65 64 66 67 66 65 65 64 63 62 63 63
26 24 26 25 27 23 23 24 25 23 22 21 38 39 48 48 47 44 45 45 49 52 62 64 65 65 62 58 56 60 61 64 64 63 66 67 65 66 65 64 62 63 63 62
32 34 27 23 29 29 27 26 28 27 29 28 17 40 48 49 47 47 49 48 50 57 63 65 65 66 64 61 59 60 64 64 64 64 67 67 66 66 65 64 62 62 61 62
38 40 39 33 34 29 30 31 30 30 32 35 47 50 47 47 52 55 60 59 55 58 64 65 66 65 64 63 63 67 65 64 64 65 67 67 66 66 65 64 62 61 61 61
33 34 33 30 30 31 30 31 30 31 35 48 51 47 51 58 53 50 60 66 64 63 66 66 66 65 66 67 66 66 66 66 66 66 66 66 66 66 65 63 62 62 61 59
22 35 31 29 30 28 31 35 38 36 41 56 52 53 54 49 41 43 52 65 66 66 67 66 66 66 66 67 66 64 64 61 62 62 62 63 67 66 64 63 62 62 61 61
19 22 30 29 29 27 30 37 40 29 38 52 55 54 50 44 46 51 62 63 64 64 63 62 62 62 63 64 62 61 60 59 59 59 59 60 63 66 65 64 63 62 61 59
23 23 22 29 29 27 39 40 43 42 44 58 58 58 57 58 59 59 60 62 61 61 61 61 60 60 60 61 60 58 58 58 58 57 57 57 58 59 62 63 62 61 58 57
27 30 25 24 27 55 58 57 59 50 58 58 58 58 58 58 58 60 60 60 60 60 60 60 59 59 59 59 59 57 58 57 56 56 54 54 55 55 57 57 58 58 56 54
39 44 35 34 47 55 58 58 60 60 59 57 59 58 58 58 60 59 59 60 60 60 59 58 58 57 57 57 58 58 57 56 54 53 52 52 52 52 52 53 54 54 53 52
42 46 47 46 52 53 58 59 60 58 58 58 60 59 59 60 59 59 58 58 59 60 59 59 57 56 56 57 57 57 56 54 53 52 51 50 50 49 48 48 49 50 50 51
46 47 46 48 53 54 55 55 57 59 57 57 57 60 60 59 58 58 58 58 58 59 59 58 56 56 56 56 56 56 56 54 52 51 50 50 49 49 49 48 47 45 47 48
Wind_Speed
13 6 12 22 21 8 10 12 15 11 11 8 3 12 16 21 24 24 22 22 23 22 17 19 14 11 14 22 23 20 25 20 16 5 8 9 8 21 24 5 4 4 5 5
13 18 20 15 4 7 9 11 13 13 13 7 4 14 21 18 22 28 26 24 22 20 20 20 15 12 12 13 16 16 18 19 15 12 4 4 4 14 21 11 2 2 0 3
19 17 15 2 6 8 8 9 14 14 8 4 8 15 19 13 14 25 25 24 21 23 22 20 18 15 11 8 17 18 22 23 20 19 12 14 5 11 11 3 4 2 4 5
14 20 7 2 7 5 12 16 10 5 10 11 10 20 17 14 17 18 25 24 22 23 22 21 19 15 13 10 17 20 22 21 24 22 16 16 15 10 3 1 1 3 6 5
15 14 8 8 7 10 14 7 9 11 12 10 18 9 9 10 5 13 14 23 24 22 25 23 21 18 14 18 14 16 21 23 23 21 17 16 15 4 5 6 10 9 8 11
18 13 5 5 11 12 7 10 7 12 12 14 7 5 10 11 4 8 11 15 23 25 23 21 20 21 18 17 17 17 17 16 18 21 17 9 8 10 8 10 10 12 7 7
16 14 7 6 12 8 6 5 8 5 3 7 9 5 14 20 15 18 21 22 22 24 23 23 24 20 19 19 19 17 16 14 13 13 12 9 6 7 10 9 12 12 12 13
15 14 20 14 13 6 13 13 10 5 7 5 3 7 1 21 14 10 11 22 25 24 23 23 22 19 18 20 21 18 14 13 13 14 12 10 14 14 9 12 12 12 12 10
9 18 19 17 8 11 6 13 17 15 11 9 5 4 3 8 11 10 9 20 22 24 25 25 22 21 17 19 20 21 17 13 10 15 11 10 11 11 9 13 14 12 7 8
18 16 7 18 13 9 10 6 6 6 9 12 9 5 3 9 8 2 11 15 20 20 23 25 22 21 16 18 18 21 21 18 15 15 11 10 12 9 11 15 14 10 8 11
21 12 18 5 3 8 9 12 7 6 4 3 10 1 9 17 16 13 32 18 18 20 22 21 21 20 19 17 13 18 18 17 19 15 12 12 13 8 13 17 13 8 8 12
20 5 10 12 15 19 16 14 12 9 10 9 9 1 5 15 17 25 33 33 24 15 19 22 22 22 20 17 11 6 9 18 15 15 13 18 14 10 15 15 12 8 11 11
4 8 10 13 13 10 6 12 5 6 3 11 9 5 1 8 31 31 27 20 34 11 17 22 23 20 18 25 20 19 3 14 18 17 14 17 14 12 13 14 13 9 12 12
4 4 2 12 8 11 6 12 7 7 10 15 11 6 1 5 16 18 37 39 18 10 17 21 20 16 22 24 23 25 14 14 16 16 15 17 15 12 14 14 12 9 12 10
5 2 6 13 16 16 19 13 10 9 14 11 19 12 14 4 6 6 6 8 4 20 17 20 20 19 22 21 16 18 13 9 16 16 17 17 15 15 15 14 11 9 11 11
3 3 6 11 13 18 22 25 15 16 17 20 18 11 6 4 13 8 13 13 6 22 14 19 20 19 19 20 18 17 17 14 18 17 18 19 17 17 17 15 12 8 9 12
2 3 3 15 11 17 15 12 6 8 10 19 16 13 16 12 17 14 15 10 16 18 18 19 20 19 18 18 20 19 18 20 16 15 20 21 20 19 19 18 14 8 6 12
6 6 4 4 7 10 7 3 2 5 8 18 29 25 17 10 4 7 20 29 24 19 19 20 20 19 18 16 14 10 20 18 12 9 17 18 18 18 19 17 18 12 7 12
1 3 3 1 8 15 18 4 4 1 10 21 31 25 19 18 25 20 5 18 9 8 9 12 17 16 9 6 14 19 19 12 10 13 10 9 14 17 18 17 17 15 10 9
6 5 5 3 3 4 8 2 3 3 5 31 16 23 32 28 10 12 4 13 20 20 17 20 19 16 15 11 17 21 23 20 9 13 12 10 8 14 19 17 17 16 12 12
14 12 15 13 9 10 11 4 5 7 7 20 10 17 13 8 6 8 11 13 16 16 18 18 19 18 15 16 20 24 18 17 13 13 13 12 11 9 15 14 13 13 14 15
18 14 18 12 15 18 7 11 2 4 4 20 24 19 14 11 17 15 13 13 15 15 14 13 16 15 15 15 18 17 19 13 15 15 13 13 13 12 11 15 13 13 16 14
12 12 16 17 13 4 8 9 9 18 13 16 23 18 17 17 15 15 14 13 11 11 11 10 13 13 14 13 13 16 12 15 16 16 14 14 15 15 13 13 13 14 14 12
12 17 6 4 9 9 17 18 18 16 11 7 15 22 18 18 19 16 14 11 10 9 10 11 12 12 11 13 14 15 13 15 15 14 13 13 14 14 14 14 12 12 11 10
4 10 13 4 19 11 21 19 21 9 5 6 15 20 21 19 18 15 13 12 12 11 12 11 11 11 11 11 12 13 14 15 14 13 12 12 13 14 15 15 11 11 8 6
2 2 4 7 8 6 5 6 8 2 4 8 8 17 18 19 16 15 13 12 11 13 13 12 11 10 10 11 11 11 11 12 13 13 11 11 12 11 12 14 15 15 12 12
Wind_Direction
251 217 247 248 245 282 12 338 332 338 126 79 343 298 192 182 159 160 159 157 162 163 161 154 149 151 157 132 144 135 143 154 134 156 279 313 11 309 304 297 269 165 181 248
269 232 251 270 60 22 346 322 309 309 131 126 213 279 288 188 175 165 162 166 168 166 155 153 145 121 103 122 140 126 141 145 130 89 22 293 185 243 278 276 245 293 258 271
237 252 229 1 351 346 308 284 293 296 355 340 215 248 252 246 156 160 167 167 166 168 161 153 144 133 124 134 131 133 146 137 125 138 197 206 272 259 258 270 30 291 279 289
256 259 218 265 278 264 275 279 327 291 346 303 313 303 269 239 162 150 164 162 176 170 154 150 143 138 141 134 134 138 143 146 150 166 191 208 229 255 228 137 187 297 295 326
252 261 277 181 249 231 252 328 352 334 303 306 298 329 324 96 83 134 123 171 178 161 150 154 152 145 136 127 125 137 151 160 170 179 198 201 234 211 69 47 17 16 74 54
257 292 244 240 240 256 342 342 327 287 266 274 321 335 23 344 141 149 198 235 153 145 150 155 147 142 142 138 138 133 141 144 161 175 188 157 118 97 77 37 32 39 59 31
286 267 223 228 287 228 187 280 281 278 205 233 275 341 173 204 226 182 190 148 146 147 146 142 141 145 153 150 144 138 136 139 136 130 124 118 93 100 79 53 38 43 30 17
234 261 228 201 214 241 192 208 227 292 304 254 320 238 68 91 62 52 114 141 146 140 141 143 143 148 148 152 144 139 144 151 148 130 119 99 71 92 83 64 81 55 34 9
262 246 277 193 170 229 264 220 231 255 288 319 220 175 218 59 110 120 160 157 150 148 146 148 152 155 165 154 145 147 151 155 138 119 113 100 100 96 86 93 81 62 23 15
255 284 313 173 173 210 208 270 325 322 273 278 294 184 167 100 140 249 340 146 146 154 148 152 157 156 158 159 156 156 155 160 140 133 135 135 116 114 94 99 84 67 30 40
227 236 281 103 134 228 241 241 253 257 274 293 300 222 217 180 163 54 17 312 155 160 160 153 143 148 152 167 168 157 156 155 143 144 159 143 124 112 110 107 98 76 59 55
211 184 256 241 208 209 225 236 229 219 257 245 253 212 78 98 77 94 91 301 319 143 141 133 139 147 159 163 139 94 185 154 158 152 150 130 124 112 106 102 96 78 76 59
325 184 243 297 312 312 326 229 285 281 268 265 292 233 180 86 101 102 110 293 314 247 131 126 129 142 149 98 78 65 285 332 148 143 138 135 128 112 111 109 100 82 79 69
48 64 175 239 244 332 300 329 325 27 319 288 269 179 353 89 103 115 132 214 275 313 139 133 138 136 114 123 122 110 191 254 153 152 151 143 133 126 116 106 96 89 87 71
40 40 17 330 334 326 318 270 275 283 289 281 276 144 191 120 88 66 273 293 281 309 145 136 129 130 133 135 156 146 176 147 168 168 144 141 138 122 118 105 89 80 86 78
13 330 343 307 317 305 303 306 221 217 216 245 114 145 101 106 97 136 248 255 270 297 159 137 137 140 153 154 159 162 179 200 174 165 149 147 142 134 127 115 110 97 87 96
42 357 244 268 298 305 308 288 32 244 340 356 284 150 158 182 180 181 202 225 265 261 162 152 155 158 165 179 181 195 186 162 159 162 148 155 152 146 141 136 123 116 115 111
60 45 353 290 328 279 264 83 231 338 346 19 100 114 133 120 111 74 329 263 240 198 173 162 164 163 174 192 207 184 143 147 156 163 157 160 160 152 144 143 136 134 130 117
49 73 9 6 293 288 299 322 288 70 23 61 118 124 117 69 54 328 342 37 73 94 86 155 162 155 146 168 213 164 136 85 135 114 92 128 176 155 149 139 134 135 141 131
272 200 187 299 298 278 311 199 252 322 69 72 108 152 141 143 140 174 139 52 68 70 64 76 69 67 65 54 77 89 96 134 82 58 53 31 54 146 150 155 147 146 154 132
219 234 218 226 237 257 271 206 9 257 211 136 154 221 170 205 200 184 113 83 69 70 80 70 66 62 49 73 88 99 94 89 84 66 58 46 49 83 145 135 138 145 128 118
201 204 220 226 232 259 281 318 271 215 159 134 138 170 170 121 94 95 91 86 88 88 88 86 81 73 71 74 84 85 89 93 81 81 72 64 61 67 89 126 127 125 127 122
228 216 206 198 226 115 77 103 69 148 108 119 132 145 142 129 123 109 99 105 110 115 102 97 100 89 74 80 93 92 87 89 87 83 75 71 69 67 69 92 105 113 119 124
5 5 156 94 18 111 98 61 48 60 63 65 147 142 138 133 127 134 133 126 106 113 121 117 104 92 84 83 85 100 102 96 91 88 82 78 79 78 70 72 76 96 104 111
354 351 341 59 26 45 55 52 17 61 65 47 98 130 129 128 136 141 145 150 150 144 133 120 110 105 102 97 97 98 107 109 107 103 97 91 89 91 87 75 74 91 76 117
61 21 32 46 13 34 65 113 94 353 62 119 100 102 126 132 145 148 148 151 150 124 126 123 120 122 118 110 112 118 121 122 122 118 117 120 114 108 108 103 88 61 80 82